This is the latest recevied weather packets stored in our database for station/object SR9WXY. If no packets are shown the sender has not sent any weather packets the latest 10 day(s).
| Time | Temp. | Humidity | Pressure | Rain* | Wind** | Luminosity | Snow |
|---|---|---|---|---|---|---|---|
| 1787959236 | 17.22° C | 100% | 882.4 hPa | - | - | - | - |
| 1787958936 | 17.22° C | 100% | 882.4 hPa | - | - | - | - |
| 1787958636 | 16.67° C | 100% | 882.4 hPa | - | - | - | - |
| 1787958336 | 16.67° C | 100% | 882.4 hPa | - | - | - | - |
| 1787958036 | 16.67° C | 100% | 882.4 hPa | - | - | - | - |
| 1787957735 | 16.67° C | 100% | 882.5 hPa | - | - | - | - |
| 1787957435 | 16.67° C | 100% | 882.5 hPa | - | - | - | - |
| 1787956943 | 16.11° C | 100% | 882.7 hPa | - | - | - | - |
| 1787956644 | 16.67° C | 100% | 882.8 hPa | - | - | - | - |
| 1787956343 | 16.11° C | 100% | 882.8 hPa | - | - | - | - |
| 1787956043 | 16.11° C | 100% | 882.8 hPa | - | - | - | - |
| 1787955743 | 16.11° C | 100% | 882.8 hPa | - | - | - | - |
| 1787955443 | 15.56° C | 100% | 883.1 hPa | - | - | - | - |
| 1787955143 | 15.56° C | 100% | 883 hPa | - | - | - | - |
| 1787954843 | 15.56° C | 100% | 883.1 hPa | - | - | - | - |
| 1787954543 | 15.56° C | 100% | 883.1 hPa | - | - | - | - |
| 1787954243 | 15.56° C | 100% | 883.3 hPa | - | - | - | - |
| 1787953943 | 15.56° C | 100% | 883.4 hPa | - | - | - | - |
| 1787953634 | 15.56° C | 100% | 883.4 hPa | - | - | - | - |
| 1787953334 | 15.56° C | 100% | 883.5 hPa | - | - | - | - |
| 1787953034 | 15° C | 100% | 883.5 hPa | - | - | - | - |
| 1787952734 | 15° C | 100% | 883.7 hPa | - | - | - | - |
| 1787952434 | 15° C | 100% | 883.8 hPa | - | - | - | - |
| 1787952134 | 15.56° C | 100% | 883.8 hPa | - | - | - | - |
| 1787951832 | 15.56° C | 100% | 884 hPa | - | - | - | - |
* Rain since midnight (hover to see other rain measurements)
** Current wind speed in m/s (hover to see current wind gust speed)